sat.trackr.live / text

‹ back to catalog

HULIANWANG DIGUI-111

NORAD 66921 · 2025-285G

PAYLOAD ACTIVE UNKNOWN

§ Identity

Operator
Country
PRC
Launch date
2025-12-06
Launch site
WSC
Launch vehicle
Mass (kg)
RCS (m²)

External: N2YO · Heavens-Above · Gunter

§ Orbital elements

Epoch: 2026-05-25T04:42:25.200000Z

Period
108.33 min
Inclination
50.0117°
Eccentricity
0.0001002
Mean motion
13.29325423 rev/d
Perigee alt
1,148.6 km
Apogee alt
1,150.1 km
Semi-major
7,527.4 km
B*
6.1542e-5
RAAN
228.3371°
Arg perigee
213.1584°
Mean anomaly
146.9225°
Rev number
2,300

§ Raw data

HULIANWANG DIGUI-1111 66921U 25285G   26145.19612500 -.00000095  00000+0  61542-4 0  99942 66921  50.0117 228.3371 0001002 213.1584 146.9225 13.29325423 23001

JSON: /api/v1/satellites/66921 · /tle

For live sub-satellite position, see the globe view (requires WebGL).

§ Visibility from observer

Set your observer location to see the next 7 days of passes ≥ 10°. The values pass through the URL so the page stays shareable.

No JS? Fill the form by hand. The geolocation button needs JavaScript.